This is the latest recevied weather packets stored in our database for station/object JL1CBB-13. If no packets are shown the sender has not sent any weather packets the latest 1 day(s).
| Time | Temp. | Humidity | Pressure | Rain* | Wind** | Luminosity | Snow |
|---|---|---|---|---|---|---|---|
| 1778064114 | 17.78° C | 97% | 1021 hPa | 0 mm | 0.45 m/s, 176° | - | - |
| 1778063516 | 17.78° C | 97% | 1021 hPa | 0 mm | 0 m/s | - | - |
| 1778062916 | 17.78° C | 96% | 1021 hPa | 0 mm | 0.45 m/s, 210° | - | - |
| 1778062316 | 18.33° C | 94% | 1020 hPa | 0 mm | 0.89 m/s, 176° | - | - |
| 1778061715 | 18.33° C | 91% | 1020 hPa | 0 mm | 0.89 m/s, 188° | - | - |
| 1778061115 | 18.89° C | 88% | 1021 hPa | 0 mm | 0.89 m/s, 213° | - | - |
| 1778060515 | 18.89° C | 84% | 1021 hPa | 0 mm | 0.45 m/s, 205° | - | - |
| 1778059914 | 19.44° C | 81% | 1021 hPa | 0 mm | 0.45 m/s, 206° | - | - |
| 1778059315 | 19.44° C | 80% | 1021 hPa | 0 mm | 0 m/s | - | - |
| 1778058715 | 19.44° C | 80% | 1021 hPa | 0 mm | 0.45 m/s, 145° | - | - |
| 1778058114 | 19.44° C | 79% | 1021 hPa | 0 mm | 1.34 m/s, 199° | - | - |
| 1778057514 | 19.44° C | 79% | 1021 hPa | 0 mm | 0.89 m/s, 213° | - | - |
| 1778056914 | 19.44° C | 79% | 1021 hPa | 0 mm | 0 m/s | - | - |
| 1778056314 | 19.44° C | 78% | 1021 hPa | 0 mm | 0.89 m/s, 189° | - | - |
| 1778055714 | 20° C | 78% | 1021 hPa | 0 mm | 0.89 m/s, 158° | - | - |
| 1778055114 | 20° C | 76% | 1021 hPa | 0 mm | 1.34 m/s, 161° | - | - |
| 1778054516 | 20° C | 74% | 1021 hPa | 0 mm | 0.45 m/s, 212° | - | - |
| 1778053916 | 20° C | 74% | 1021 hPa | 0 mm | 0.89 m/s, 203° | - | - |
| 1778053315 | 20° C | 73% | 1021 hPa | 0 mm | 1.34 m/s, 165° | - | - |
| 1778052715 | 20.56° C | 72% | 1021 hPa | 0 mm | 2.24 m/s, 181° | - | - |
| 1778052115 | 20.56° C | 71% | 1021 hPa | 0 mm | 1.34 m/s, 205° | - | - |
| 1778051515 | 20.56° C | 71% | 1021 hPa | 0 mm | 1.34 m/s, 163° | - | - |
| 1778050915 | 21.11° C | 69% | 1021 hPa | 0 mm | 1.34 m/s, 204° | - | - |
| 1778050315 | 21.11° C | 69% | 1021 hPa | 0 mm | 1.34 m/s, 170° | - | - |
| 1778049715 | 21.67° C | 68% | 1021 hPa | 0 mm | 1.34 m/s, 180° | - | - |
* Rain latest hour (hover to see other rain measurements)
** Current wind speed in m/s (hover to see current wind gust speed)